Joplin, MO

6:49 AM CDT on May 26, 2017 (GMT -0500)
Joplin Regional

Weather History for KJLN - December, 2013

Change the Weather History Date:

Tuesday, December 10, 2013

  Actual Average Record
Temperature  
Mean Temperature 18 °F 38 °F  
Max Temperature 32 °F 48 °F 74 °F (1996)
Min Temperature 3 °F 28 °F 0 °F (1995)
Degree Days  
Heating Degree Days 47 27  
Month to date heating degree days 349 253  
Since 1 July heating degree days 1237 1010  
Cooling Degree Days 0 0  
Month to date cooling degree days 0 0  
Year to date cooling degree days 1568 1698  
Moisture  
Dew Point 11 °F    
Average Humidity 72    
Maximum Humidity 91    
Minimum Humidity 53    
Precipitation  
Precipitation T in 0.09 in 1.51 in (1985)
Month to date precipitation 0.15 1.02  
Year to date precipitation 42.75 44.75  
Sea Level Pressure  
Sea Level Pressure 30.37 in    
Wind  
Wind Speed 8 mph (SW)    
Max Wind Speed 17 mph    
Max Gust Speed 22 mph    
Visibility 10 miles    
Events Snow    
T = Trace of Precipitation, MM = Missing Value Source: NWS Daily Summary

Daily Weather History Graph

Daily Weather History Graph

Search for Another Location

Airport or City:

Trip Planner

Search our weather history database for the weather conditions in past years. The results will help you decide how hot, cold, wet, or windy it might be!

Date:

Astronomy

Dec. 10, 2013 Rise Set
Actual Time 7:20 AM CST 5:00 PM CST
Civil Twilight 6:52 AM CST 5:29 PM CST
Nautical Twilight 6:19 AM CST 6:02 PM CST
Astronomical Twilight 5:47 AM CST 6:34 PM CST
Moon 12:55 PM CST (12/10) 12:47 AM CST (12/10)
Length of Visible Light 10h 37m
Length of Day
9h 39m
Waxing Gibbous, 62% of the Moon is Illuminated
Dec 10
Waxing Gibbous
Dec 17
Full
Dec 25
Last Quarter
Jan 1
New
Jan 7
First Quarter

Hourly Weather History & Observations

Time (CST) Temp. Windchill Dew Point Humidity Pressure Visibility Wind Dir Wind Speed Gust Speed Precip Events Conditions
12:53 AM 14.0 °F 2.9 °F 10.9 °F 88% 30.42 in 5.0 mi West 8.1 mph - 0.00 in Snow Light Snow
1:19 AM 10.9 °F 0.2 °F 9.0 °F 92% 30.37 in 10.0 mi West 6.9 mph - 0.00 in   Mostly Cloudy
1:27 AM 10.9 °F 1.4 °F 9.0 °F 92% 30.36 in 10.0 mi West 5.8 mph - 0.00 in   Scattered Clouds
1:53 AM 9.0 °F 0.6 °F 8.1 °F 96% 30.40 in 10.0 mi SW 4.6 mph - 0.00 in   Clear
2:53 AM 7.0 °F -4.5 °F 3.9 °F 87% 30.43 in 8.0 mi WSW 6.9 mph - N/A   Clear
3:53 AM 8.1 °F -4.3 °F 6.1 °F 92% 30.42 in 9.0 mi SSW 8.1 mph - N/A   Clear
4:53 AM 8.1 °F -5.3 °F 5.0 °F 87% 30.39 in 10.0 mi SSW 9.2 mph - N/A   Clear
5:53 AM 5.0 °F -8.1 °F 1.9 °F 87% 30.42 in 10.0 mi SSW 8.1 mph - N/A   Clear
6:53 AM 6.1 °F -7.8 °F 3.0 °F 87% 30.40 in 10.0 mi South 9.2 mph - N/A   Clear
7:53 AM 10.0 °F -2.9 °F 7.0 °F 87% 30.41 in 10.0 mi SSW 9.2 mph - N/A   Clear
8:53 AM 14.0 °F -0.8 °F 10.9 °F 88% 30.43 in 10.0 mi SSW 13.8 mph - N/A   Clear
9:53 AM 18.0 °F 4.8 °F 10.9 °F 74% 30.45 in 10.0 mi SW 12.7 mph - N/A   Clear
10:53 AM 21.9 °F 10.4 °F 10.9 °F 63% 30.44 in 10.0 mi WSW 11.5 mph - N/A   Clear
11:53 AM 25.0 °F 16.3 °F 12.9 °F 60% 30.42 in 10.0 mi SW 8.1 mph - N/A   Clear
12:53 PM 27.0 °F 19.5 °F 12.9 °F 56% 30.38 in 10.0 mi West 6.9 mph - N/A   Clear
1:53 PM 28.9 °F 21.1 °F 15.1 °F 56% 30.34 in 10.0 mi SSW 8.1 mph - N/A   Clear
2:53 PM 30.9 °F 26.2 °F 16.0 °F 54% 30.31 in 10.0 mi SSW 4.6 mph - N/A   Clear
3:53 PM 30.9 °F 25.2 °F 18.0 °F 59% 30.32 in 10.0 mi SSW 5.8 mph - N/A   Clear
4:53 PM 26.1 °F 19.4 °F 15.1 °F 63% 30.31 in 10.0 mi South 5.8 mph - N/A   Clear
5:53 PM 23.0 °F 14.7 °F 14.0 °F 68% 30.32 in 10.0 mi South 6.9 mph - N/A   Clear
6:53 PM 21.9 °F 13.4 °F 15.1 °F 75% 30.34 in 10.0 mi SSW 6.9 mph - N/A   Clear
7:53 PM 24.1 °F 14.4 °F 15.1 °F 69% 30.31 in 10.0 mi South 9.2 mph - N/A   Clear
8:53 PM 26.1 °F 16.2 °F 16.0 °F 66% 30.28 in 10.0 mi South 10.4 mph - N/A   Clear
9:53 PM 25.0 °F - 14.0 °F 63% 30.30 in 10.0 mi Calm Calm - N/A   Clear
10:53 PM 21.9 °F 14.5 °F 14.0 °F 72% 30.32 in 10.0 mi South 5.8 mph - N/A   Clear
11:53 PM 21.0 °F 14.6 °F 12.9 °F 71% 30.31 in 10.0 mi SSE 4.6 mph - N/A   Clear